| time (UTC) | temp C | wind direction | speed KPH | gust KPH | rain 1hr cm | rain 24hr cm | rain mn cm | humidity % | barometer mb |
| 20260506081235 | 7 | 288 | 12.9 | 17.7 | 0.00 | 0.00 | 0.00 | 71 | 1013.0 |
| 20260506080548 | 7 | 290 | 14.5 | 27.4 | 0.00 | 0.00 | 0.00 | 71 | 1013.1 |
| 20260506072735 | 6 | 300 | 6.4 | 11.3 | 0.00 | 0.00 | 0.00 | 81 | 1013.1 |
| 20260506071835 | 6 | 310 | 6.4 | 12.9 | 0.00 | 0.00 | 0.00 | 81 | 1013.1 |
| 20260506070935 | 6 | 326 | 3.2 | 6.4 | 0.00 | 0.00 | 0.00 | 83 | 1013.2 |
| 20260506062435 | 7 | 19 | 9.7 | 12.9 | 0.00 | 0.00 | 0.00 | 81 | 1013.1 |
| 20260506061535 | 7 | 18 | 9.7 | 17.7 | 0.00 | 0.00 | 0.00 | 80 | 1013.1 |
| 20260506060848 | 7 | 13 | 9.7 | 17.7 | 0.00 | 0.00 | 0.00 | 80 | 1013.1 |
| 20260506051235 | 8 | 337 | 9.7 | 19.3 | 0.00 | 0.00 | 0.00 | 78 | 1013.0 |
| 20260506050545 | 8 | 340 | 12.9 | 20.9 | 0.00 | 0.00 | 0.00 | 78 | 1012.9 |
| 20260506044535 | 9 | 308 | 17.7 | 24.1 | 0.00 | 0.00 | 0.00 | 68 | 1012.6 |
| 20260506043635 | 10 | 308 | 17.7 | 25.7 | 0.00 | 0.00 | 0.00 | 69 | 1012.6 |
| 20260506042735 | 10 | 301 | 12.9 | 20.9 | 0.00 | 0.00 | 0.00 | 66 | 1012.8 |
| 20260506041835 | 10 | 298 | 12.9 | 22.5 | 0.00 | 0.00 | 0.00 | 65 | 1012.4 |
| 20260506040935 | 10 | 232 | 8.0 | 11.3 | 0.00 | 0.00 | 0.00 | 64 | 1012.0 |
| 20260506040036 | 10 | 220 | 8.0 | 12.9 | 0.00 | 0.00 | 0.00 | 65 | 1012.0 |
| 20260506035135 | 9 | 200 | 11.3 | 16.1 | 0.00 | 0.00 | 0.00 | 65 | 1011.7 |
| 20260506034446 | 9 | 219 | 8.0 | 12.9 | 0.00 | 0.00 | 0.00 | 63 | 1011.5 |
| 20260506033548 | 10 | 298 | 0.0 | 4.8 | 0.00 | 0.00 | 0.00 | 60 | 1011.3 |
| 20260506032435 | 10 | 298 | 1.6 | 6.4 | 0.00 | 0.00 | 0.00 | 60 | 1011.4 |
| 20260506031748 | 10 | 298 | 0.0 | 6.4 | 0.00 | 0.00 | 0.00 | 60 | 1011.2 |
| 20260506030635 | 11 | 278 | 1.6 | 6.4 | 0.00 | 0.00 | 0.00 | 59 | 1011.2 |
| 20260506025735 | 11 | 247 | 3.2 | 4.8 | 0.00 | 0.00 | 0.00 | 59 | 1011.3 |
| 20260506024835 | 11 | 247 | 4.8 | 8.0 | 0.00 | 0.00 | 0.00 | 58 | 1011.1 |
| 20260506024147 | 11 | 243 | 8.0 | 11.3 | 0.00 | 0.00 | 0.00 | 57 | 1011.0 |
| 20260506023038 | 12 | 244 | 9.7 | 22.5 | 0.00 | 0.00 | 0.00 | 56 | 1010.9 |
| 20260506022135 | 11 | 220 | 12.9 | 22.5 | 0.00 | 0.00 | 0.00 | 58 | 1011.0 |
| 20260506021235 | 11 | 289 | 9.7 | 16.1 | 0.00 | 0.00 | 0.00 | 57 | 1010.7 |
| 20260506020546 | 11 | 304 | 12.9 | 17.7 | 0.00 | 0.00 | 0.00 | 57 | 1010.4 |
| 20260506015435 | 11 | 309 | 12.9 | 17.7 | 0.00 | 0.00 | 0.00 | 55 | 1010.0 |
| 20260506014536 | 12 | 302 | 12.9 | 17.7 | 0.00 | 0.00 | 0.00 | 53 | 1009.7 |
| 20260506013635 | 13 | 305 | 12.9 | 20.9 | 0.00 | 0.00 | 0.00 | 51 | 1009.3 |
| 20260506012736 | 13 | 295 | 16.1 | 22.5 | 0.00 | 0.00 | 0.00 | 49 | 1009.3 |
| 20260506011835 | 14 | 288 | 17.7 | 22.5 | 0.00 | 0.00 | 0.00 | 48 | 1009.4 |
| 20260506010935 | 15 | 291 | 19.3 | 27.4 | 0.00 | 0.00 | 0.00 | 47 | 1009.3 |
| 20260506010035 | 15 | 284 | 19.3 | 25.7 | 0.00 | 0.00 | 0.00 | 47 | 1009.4 |
| 20260506005135 | 15 | 283 | 19.3 | 27.4 | 0.00 | 0.00 | 0.00 | 47 | 1009.4 |
| 20260506004235 | 15 | 286 | 20.9 | 29.0 | 0.00 | 0.00 | 0.00 | 47 | 1009.3 |
| 20260506003335 | 15 | 289 | 17.7 | 24.1 | 0.00 | 0.00 | 0.00 | 47 | 1009.2 |
| 20260506002440 | 15 | 288 | 17.7 | 24.1 | 0.00 | 0.00 | 0.00 | 49 | 1009.3 |
| 20260506001535 | 15 | 285 | 17.7 | 27.4 | 0.00 | 0.00 | 0.00 | 50 | 1009.2 |
| 20260506000635 | 15 | 295 | 24.1 | 32.2 | 0.00 | 0.00 | 0.00 | 49 | 1009.1 |
| 20260505235735 | 15 | 304 | 29.0 | 37.0 | 0.00 | 0.00 | 0.00 | 48 | 1009.0 |
| 20260505235047 | 15 | 294 | 27.4 | 37.0 | 0.00 | 0.00 | 0.00 | 48 | 1009.1 |
| 20260505233935 | 15 | 293 | 29.0 | 40.2 | 0.00 | 0.00 | 0.00 | 50 | 1008.9 |
| 20260505233035 | 15 | 294 | 24.1 | 35.4 | 0.00 | 0.00 | 0.00 | 49 | 1008.8 |
| 20260505232135 | 15 | 303 | 27.4 | 38.6 | 0.00 | 0.00 | 0.00 | 50 | 1008.9 |
| 20260505231235 | 15 | 306 | 29.0 | 38.6 | 0.00 | 0.00 | 0.00 | 53 | 1008.8 |
| 20260505230335 | 15 | 300 | 32.2 | 41.8 | 0.00 | 0.00 | 0.00 | 49 | 1008.9 |
| 20260505225435 | 15 | 310 | 32.2 | 43.5 | 0.00 | 0.00 | 0.00 | 51 | 1008.9 |
| 20260505224535 | 15 | 307 | 33.8 | 46.7 | 0.00 | 0.00 | 0.00 | 52 | 1009.2 |
| 20260505223635 | 15 | 306 | 40.2 | 49.9 | 0.00 | 0.00 | 0.00 | 51 | 1009.5 |
| 20260505222735 | 16 | 305 | 35.4 | 49.9 | 0.00 | 0.00 | 0.00 | 46 | 1009.5 |
| 20260505221835 | 16 | 294 | 25.7 | 41.8 | 0.00 | 0.00 | 0.00 | 47 | 1009.0 |
| 20260505220935 | 16 | 298 | 24.1 | 33.8 | 0.00 | 0.00 | 0.00 | 46 | 1009.1 |
| 20260505220035 | 16 | 323 | 24.1 | 33.8 | 0.00 | 0.00 | 0.00 | 43 | 1009.0 |
| 20260505215135 | 17 | 324 | 27.4 | 37.0 | 0.00 | 0.00 | 0.00 | 43 | 1009.0 |
| 20260505214235 | 16 | 327 | 32.2 | 45.1 | 0.00 | 0.00 | 0.00 | 44 | 1009.1 |
| 20260505213335 | 16 | 320 | 38.6 | 51.5 | 0.00 | 0.00 | 0.00 | 43 | 1009.3 |
| 20260505212435 | 17 | 299 | 35.4 | 45.1 | 0.00 | 0.00 | 0.00 | 39 | 1009.6 |
| 20260505211535 | 16 | 290 | 40.2 | 54.7 | 0.00 | 0.00 | 0.00 | 41 | 1009.5 |
| 20260505210635 | 15 | 278 | 37.0 | 54.7 | 0.00 | 0.00 | 0.00 | 43 | 1010.0 |
| 20260505205735 | 16 | 291 | 33.8 | 46.7 | 0.00 | 0.00 | 0.00 | 41 | 1009.7 |
| 20260505204835 | 16 | 276 | 22.5 | 33.8 | 0.00 | 0.00 | 0.00 | 50 | 1009.8 |
| 20260505203935 | 16 | 279 | 24.1 | 33.8 | 0.00 | 0.00 | 0.00 | 50 | 1009.9 |
| 20260505203035 | 16 | 288 | 29.0 | 41.8 | 0.00 | 0.00 | 0.00 | 50 | 1009.9 |
| 20260505202135 | 17 | 289 | 27.4 | 41.8 | 0.00 | 0.00 | 0.00 | 50 | 1009.7 |
| 20260505201235 | 16 | 252 | 27.4 | 49.9 | 0.00 | 0.00 | 0.00 | 48 | 1009.9 |
| 20260505200335 | 16 | 242 | 30.6 | 49.9 | 0.00 | 0.00 | 0.00 | 44 | 1010.0 |
| 20260505195647 | 17 | 221 | 32.2 | 48.3 | 0.00 | 0.00 | 0.00 | 44 | 1010.0 |
| 20260505194535 | 17 | 222 | 32.2 | 49.9 | 0.00 | 0.00 | 0.00 | 45 | 1010.2 |
| 20260505193635 | 16 | 219 | 32.2 | 45.1 | 0.00 | 0.00 | 0.00 | 49 | 1010.2 |
| 20260505192735 | 17 | 216 | 33.8 | 43.5 | 0.00 | 0.00 | 0.00 | 47 | 1010.4 |
| 20260505192047 | 16 | 213 | 32.2 | 46.7 | 0.00 | 0.00 | 0.00 | 49 | 1010.4 |
| 20260505191149 | 16 | 227 | 33.8 | 46.7 | 0.00 | 0.00 | 0.00 | 51 | 1010.5 |
| 20260505190035 | 15 | 220 | 33.8 | 49.9 | 0.00 | 0.00 | 0.00 | 52 | 1010.8 |
| 20260505185135 | 15 | 217 | 37.0 | 53.1 | 0.00 | 0.00 | 0.00 | 52 | 1010.8 |
| 20260505184235 | 16 | 214 | 35.4 | 51.5 | 0.00 | 0.00 | 0.00 | 53 | 1010.8 |
| 20260505183335 | 16 | 221 | 33.8 | 49.9 | 0.00 | 0.00 | 0.00 | 53 | 1010.9 |
| 20260505182435 | 15 | 218 | 25.7 | 41.8 | 0.00 | 0.00 | 0.00 | 56 | 1011.1 |
| 20260505181535 | 14 | 217 | 25.7 | 38.6 | 0.00 | 0.00 | 0.00 | 59 | 1011.2 |
| 20260505180635 | 14 | 208 | 22.5 | 37.0 | 0.00 | 0.00 | 0.00 | 61 | 1011.4 |
| 20260505175735 | 13 | 210 | 20.9 | 32.2 | 0.00 | 0.00 | 0.00 | 63 | 1011.5 |
| 20260505175045 | 13 | 222 | 19.3 | 30.6 | 0.00 | 0.00 | 0.00 | 64 | 1011.7 |
| 20260505173935 | 12 | 236 | 16.1 | 24.1 | 0.00 | 0.00 | 0.00 | 62 | 1011.9 |
| 20260505173035 | 12 | 220 | 14.5 | 19.3 | 0.00 | 0.00 | 0.00 | 66 | 1011.7 |
| 20260505172135 | 12 | 214 | 14.5 | 20.9 | 0.00 | 0.00 | 0.00 | 67 | 1011.8 |
| 20260505171235 | 12 | 219 | 14.5 | 24.1 | 0.00 | 0.00 | 0.00 | 69 | 1012.1 |
| 20260505170335 | 11 | 218 | 14.5 | 20.9 | 0.00 | 0.00 | 0.00 | 74 | 1012.0 |
| 20260505165435 | 11 | 222 | 12.9 | 17.7 | 0.00 | 0.00 | 0.00 | 76 | 1012.1 |
| 20260505164535 | 11 | 218 | 16.1 | 20.9 | 0.00 | 0.00 | 0.00 | 78 | 1012.0 |
| 20260505163635 | 11 | 222 | 17.7 | 24.1 | 0.00 | 0.00 | 0.00 | 77 | 1012.1 |
| 20260505162735 | 11 | 244 | 11.3 | 24.1 | 0.00 | 0.00 | 0.00 | 76 | 1012.4 |
| 20260505161835 | 11 | 287 | 9.7 | 12.9 | 0.00 | 0.00 | 0.00 | 73 | 1012.3 |
| 20260505160935 | 11 | 292 | 11.3 | 16.1 | 0.00 | 0.00 | 0.00 | 71 | 1012.3 |
| 20260505153335 | 11 | 291 | 14.5 | 20.9 | 0.00 | 0.00 | 0.00 | 66 | 1011.9 |
| 20260505152648 | 11 | 286 | 16.1 | 24.1 | 0.00 | 0.00 | 0.00 | 64 | 1011.9 |
| 20260505151535 | 12 | 289 | 17.7 | 22.5 | 0.00 | 0.00 | 0.00 | 60 | 1012.2 |
| 20260505150635 | 12 | 296 | 20.9 | 25.7 | 0.00 | 0.00 | 0.00 | 59 | 1012.2 |
| 20260505140335 | 13 | 255 | 8.0 | 12.9 | 0.00 | 0.00 | 0.00 | 48 | 1012.3 |
| 20260505124235 | 11 | 263 | 4.8 | 8.0 | 0.00 | 0.00 | 0.00 | 56 | 1011.7 |
| 20260505123335 | 11 | 272 | 8.0 | 14.5 | 0.00 | 0.00 | 0.00 | 54 | 1011.5 |
| 20260505122435 | 12 | 283 | 14.5 | 22.5 | 0.00 | 0.00 | 0.00 | 53 | 1011.3 |
| 20260505121535 | 12 | 281 | 14.5 | 22.5 | 0.00 | 0.00 | 0.00 | 53 | 1011.5 |
| 20260505120635 | 11 | 254 | 9.7 | 12.9 | 0.00 | 0.00 | 0.00 | 55 | 1011.7 |
| 20260505115947 | 11 | 250 | 11.3 | 12.9 | 0.00 | 0.00 | 0.00 | 56 | 1011.7 |
| 20260505114835 | 11 | 269 | 9.7 | 16.1 | 0.00 | 0.00 | 0.00 | 55 | 1011.6 |
| 20260505113935 | 11 | 282 | 11.3 | 16.1 | 0.00 | 0.00 | 0.00 | 56 | 1011.5 |
| 20260505113035 | 11 | 291 | 11.3 | 16.1 | 0.00 | 0.00 | 0.00 | 55 | 1011.6 |
| 20260505112346 | 12 | 277 | 12.9 | 19.3 | 0.00 | 0.00 | 0.00 | 55 | 1011.6 |
| 20260505111235 | 12 | 277 | 14.5 | 25.7 | 0.00 | 0.00 | 0.00 | 54 | 1011.5 |
| 20260505110335 | 12 | 280 | 17.7 | 25.7 | 0.00 | 0.00 | 0.00 | 53 | 1011.5 |
| 20260505101835 | 13 | 280 | 12.9 | 24.1 | 0.00 | 0.00 | 0.00 | 42 | 1011.5 |
| 20260505100935 | 13 | 267 | 9.7 | 16.1 | 0.00 | 0.00 | 0.00 | 42 | 1011.3 |
| 20260505100035 | 13 | 262 | 9.7 | 14.5 | 0.00 | 0.00 | 0.00 | 41 | 1011.4 |
| 20260505095135 | 13 | 275 | 8.0 | 14.5 | 0.00 | 0.00 | 0.00 | 41 | 1011.3 |
| 20260505094235 | 13 | 281 | 17.7 | 25.7 | 0.00 | 0.00 | 0.00 | 39 | 1011.1 |
| 20260505093335 | 13 | 278 | 20.9 | 27.4 | 0.00 | 0.00 | 0.00 | 39 | 1010.8 |
| 20260505092435 | 13 | 279 | 20.9 | 29.0 | 0.00 | 0.00 | 0.00 | 39 | 1010.9 |
| 20260505091535 | 13 | 270 | 19.3 | 27.4 | 0.00 | 0.00 | 0.00 | 38 | 1010.8 |
| 20260505090635 | 14 | 274 | 20.9 | 30.6 | 0.00 | 0.00 | 0.00 | 38 | 1011.1 |
| 20260505084833 | 14 | 281 | 22.5 | 33.8 | 0.00 | 0.00 | 0.00 | 38 | 1011.1 |
| 20260505084143 | 14 | 284 | 16.1 | 25.7 | 0.00 | 0.00 | 0.00 | 38 | 1011.2 |
| 20260505083033 | 14 | 289 | 16.1 | 25.7 | 0.00 | 0.00 | 0.00 | 37 | 1011.6 |
| 20260505082133 | 14 | 292 | 24.1 | 33.8 | 0.00 | 0.00 | 0.00 | 36 | 1011.6 |